Погода в Чоповичах

Украина / Житомирская область     50°50′00″N   28°57′08″E
темп.,
°C
ветер,
м/с
пор.,
м/с
влажн.,
%
обл.,
%
осадки,
мм/ч
давл.,
гПа
погр.,
м
17 апреля, сб
сб1700:00+4з4692100 0.2 1014274
03:00+4з3694100 1.1 1015241
06:00+4з4696100 2.1 1015271
09:00+4з3495100 3.0 1017280
12:00+5ю1293100 0.2 1018328
15:00+6ююв228787 0.3 1019482
18:00+8юв217843 0.0 1019552
21:00+5ююз33896 0.1 101952
18 апреля, вс
вс1800:00+4з47963 0.0 1019135
03:00+3з410962 0.0 1018215
06:00+3з6129631 0.0 1017263
09:00+6з61287100 0.1 1016441
12:00+8сз6787100 1.0 1016839
15:00+8с6770100 1.1 10171083
18:00+7с587826 0.0 1018880
21:00+4ссв36904 0.0 1019105
19 апреля, пн
пн1900:00+2с369665 0.0 1019133
03:00+4с369238 0.0 1018186
06:00+2ссв229629 0.0 101821
09:00+5ссз3487100 0.0 1018219
12:00+9ссв356965 0.1 10171080
15:00+9св4569100 0.2 1016931
18:00+8ссв4780100 0.1 1015731
21:00+6ссв3891100 0.1 1014318
20 апреля, вт
вт2000:00+6ссв4893100 0.1 1013327
03:00+5ссв499682 0.3 1011337
06:00+5с599797 0.1 1009413
09:00+7с6990100 0.1 1008527
12:00+11с676390 0.1 10061476
15:00+11с566664 0.3 10041109
18:00+10сз797341 1.4 10031060
21:00+8сз71188100 1.9 1005620
21 апреля, ср
ср2100:00+6зсз6109085 0.1 1005644
03:00+6з6119095 0.1 1006642
06:00+5з61189100 0.0 1007506
09:00+7з6108299 0.1 1009748
12:00+9з696395 0.1 10091405
15:00+12з795186 0.6 10101720
18:00+12з68588 0.4 10111396
21:00+8юз337545 0.4 101340